DW8295 Weather Reports


Display with metric or nautical units.
time (UTC)temp
F
wind
direction
speed
MPH
gust
MPH
rain 1hr
in
rain 24hr
in
rain mn
in
humidity
%
barometer
mb
20260507003721 51 176 7.0 18.0 0.00 0.18 0.18 95 1004.2
20260507003443 51 225 6.0 18.0 0.00 0.18 0.18 95 1004.3
20260507002719 51 165 4.0 18.0 0.00 0.18 0.18 95 1004.2
20260507002710 51 183 5.0 13.0 0.00 0.18 0.18 95 1004.2
20260507001937 51 227 6.0 14.0 0.00 0.18 0.18 95 1004.2
20260507001219 51 204 6.0 16.0 0.00 0.18 0.18 95 1004.2
20260507000719 51 174 6.0 16.0 0.00 0.18 0.18 95 1004.3
20260507000219 51 213 8.0 20.0 0.00 0.18 0.18 95 1004.3
20260506235721 51 212 7.0 20.0 0.01 0.18 0.18 95 1004.3
20260506235221 51 180 6.0 17.0 0.01 0.18 0.18 95 1004.3
20260506234720 51 166 7.0 17.0 0.01 0.18 0.18 95 1004.2
20260506234439 51 170 7.0 18.0 0.01 0.18 0.18 95 1004.3
20260506233719 51 197 7.0 18.0 0.01 0.18 0.18 95 1004.3
20260506233219 51 142 7.0 19.0 0.01 0.18 0.18 95 1004.3
20260506232719 51 205 8.0 19.0 0.01 0.18 0.18 95 1004.3
20260506232657 51 155 8.0 16.0 0.02 0.18 0.18 95 1004.3
20260506231717 51 175 7.0 16.0 0.02 0.18 0.18 94 1004.4
20260506231439 51 246 7.0 18.0 0.02 0.18 0.18 94 1004.4
20260506230710 51 178 8.0 19.0 0.03 0.18 0.18 95 1004.5
20260506230427 51 234 8.0 19.0 0.03 0.18 0.18 95 1004.4
20260506225935 51 187 8.0 20.0 0.03 0.17 0.17 94 1004.5
20260506225210 51 167 9.0 20.0 0.04 0.17 0.17 94 1004.6
20260506224710 51 213 9.0 20.0 0.05 0.17 0.17 94 1004.5
20260506224209 51 182 8.0 18.0 0.06 0.17 0.17 94 1004.5
20260506223709 51 210 7.0 16.0 0.06 0.17 0.17 94 1004.6
20260506223208 52 192 7.0 19.0 0.07 0.17 0.17 94 1004.8
20260506222708 52 157 8.0 19.0 0.08 0.17 0.17 94 1004.7
20260506222208 52 170 7.0 16.0 0.07 0.16 0.16 94 1004.7
20260506221709 52 190 8.0 18.0 0.08 0.16 0.16 94 1004.7
20260506221209 52 170 9.0 18.0 0.09 0.16 0.16 94 1004.8
20260506220936 52 225 9.0 22.0 0.09 0.15 0.16 94 1004.9
20260506220209 52 166 9.0 22.0 0.10 0.15 0.15 94 1004.9
20260506215707 52 257 9.0 19.0 0.09 0.14 0.14 94 1005.1
20260506215208 52 202 9.0 19.0 0.09 0.13 0.13 94 1005.1
20260506214708 52 178 9.0 18.0 0.08 0.12 0.12 94 1005.1
20260506214208 52 144 8.0 22.0 0.08 0.11 0.11 93 1005.1
20260506213708 52 203 8.0 22.0 0.08 0.11 0.11 93 1005.1
20260506213207 52 172 8.0 19.0 0.08 0.10 0.10 93 1005.3
20260506212707 53 177 7.0 18.0 0.07 0.09 0.09 93 1005.3
20260506212207 53 205 7.0 19.0 0.07 0.09 0.09 93 1005.3
20260506211925 52 142 6.0 19.0 0.06 0.08 0.08 93 1005.4
20260506211207 52 167 6.0 17.0 0.05 0.07 0.07 93 1005.4
20260506210707 52 173 7.0 17.0 0.04 0.06 0.06 93 1005.4
20260506210206 52 239 6.0 12.0 0.04 0.05 0.05 92 1005.5
20260506205703 52 188 5.0 12.0 0.04 0.05 0.05 92 1005.6
20260506205204 52 180 5.0 12.0 0.04 0.04 0.04 92 1005.6
20260506204703 53 194 5.0 11.0 0.04 0.04 0.04 92 1005.6
20260506204205 53 180 4.0 10.0 0.03 0.03 0.03 92 1005.7
20260506203704 53 284 4.0 13.0 0.03 0.03 0.03 92 1005.7
20260506203205 53 213 5.0 15.0 0.02 0.02 0.02 92 1005.7
20260506202703 53 180 6.0 15.0 0.02 0.02 0.02 92 1005.7
20260506202205 53 169 5.0 14.0 0.02 0.02 0.02 92 1005.6
20260506201659 53 187 5.0 11.0 0.02 0.02 0.02 92 1005.6
20260506201202 53 168 5.0 12.0 0.02 0.02 0.02 91 1005.6
20260506200659 53 188 5.0 14.0 0.02 0.02 0.02 91 1005.7
20260506200200 53 169 5.0 14.0 0.01 0.01 0.01 91 1005.8
20260506195659 54 215 5.0 10.0 0.01 0.01 0.01 91 1006.0
20260506195201 54 205 4.0 12.0 0.00 0.00 0.01 91 1006.1
20260506194659 53 157 4.0 12.0 0.00 0.00 0.00 91 1006.2
20260506194201 53 195 5.0 12.0 0.00 0.00 0.00 92 1006.2
20260506193919 53 164 5.0 11.0 0.00 0.00 0.00 91 1006.3
20260506193155 53 246 5.0 11.0 0.00 0.00 0.00 91 1006.5
20260506192654 53 225 4.0 11.0 0.00 0.00 0.00 91 1006.4
20260506192155 53 286 4.0 10.0 0.00 0.00 0.00 91 1006.3
20260506191655 53 253 4.0 10.0 0.00 0.00 0.00 90 1006.2
20260506191157 53 267 5.0 10.0 0.00 0.00 0.00 90 1006.2
20260506190656 53 260 5.0 10.0 0.00 0.00 0.00 89 1006.1
20260506190155 54 218 6.0 14.0 0.00 0.00 0.00 88 1006.1
20260506185655 54 248 6.0 14.0 0.00 0.00 0.00 88 1006.1
20260506185155 54 222 5.0 14.0 0.00 0.00 0.00 88 1005.9
20260506184651 54 271 5.0 14.0 0.00 0.00 0.00 88 1005.8
20260506184147 54 215 6.0 14.0 0.00 0.00 0.00 88 1005.7
20260506183646 54 234 6.0 14.0 0.00 0.00 0.00 88 1005.8
20260506183405 54 203 5.0 17.0 0.00 0.00 0.00 88 1005.9
20260506182645 54 179 5.0 17.0 0.00 0.00 0.00 88 1006.0
20260506182146 54 224 5.0 16.0 0.00 0.00 0.00 88 1006.0
20260506181647 54 184 5.0 12.0 0.00 0.00 0.00 88 1006.1
20260506181145 54 183 5.0 13.0 0.00 0.00 0.00 87 1006.1
20260506180643 54 186 6.0 15.0 0.00 0.00 0.00 87 1006.1
20260506180143 54 175 6.0 15.0 0.00 0.00 0.00 87 1006.2
20260506175644 54 169 6.0 15.0 0.00 0.00 0.00 87 1006.2
20260506175142 54 209 6.0 15.0 0.00 0.00 0.00 87 1006.3
20260506174852 54 173 7.0 16.0 0.00 0.00 0.00 88 1006.3
20260506174130 54 202 6.0 17.0 0.00 0.00 0.00 88 1006.2
20260506173624 54 181 4.0 17.0 0.00 0.00 0.00 88 1006.2
20260506173600 53 178 5.0 12.0 0.00 0.00 0.00 88 1006.3
20260506172612 53 203 6.0 12.0 0.00 0.00 0.00 88 1006.4
20260506172105 53 193 5.0 14.0 0.00 0.00 0.00 88 1006.5
20260506171600 53 202 5.0 14.0 0.00 0.00 0.00 88 1006.6
20260506171052 53 180 5.0 15.0 0.00 0.00 0.00 88 1006.6
20260506170547 53 207 5.0 15.0 0.00 0.00 0.00 88 1006.8
20260506170040 53 186 5.0 12.0 0.00 0.00 0.00 88 1006.8
20260506165535 53 176 5.0 12.0 0.00 0.00 0.00 88 1007.0
20260506165035 53 195 6.0 11.0 0.00 0.00 0.00 88 1007.1
20260506164536 53 210 6.0 15.0 0.00 0.00 0.00 88 1007.2
20260506164035 53 164 6.0 15.0 0.00 0.00 0.00 88 1007.2
20260506163534 54 176 5.0 13.0 0.00 0.00 0.00 87 1007.3
20260506163035 54 221 5.0 13.0 0.00 0.00 0.00 87 1007.5
20260506162533 54 184 4.0 12.0 0.00 0.00 0.00 88 1007.5
20260506162259 54 184 5.0 12.0 0.00 0.00 0.00 87 1007.7
20260506161533 54 188 5.0 12.0 0.00 0.00 0.00 87 1007.8
20260506161034 54 237 6.0 12.0 0.00 0.00 0.00 87 1007.8
20260506160533 54 148 6.0 12.0 0.00 0.00 0.00 87 1007.9
20260506160033 54 171 5.0 15.0 0.00 0.00 0.00 87 1008.0
20260506155533 54 184 6.0 15.0 0.00 0.00 0.00 89 1008.1
20260506155032 53 138 6.0 15.0 0.00 0.00 0.00 88 1008.1
20260506154535 53 207 7.0 15.0 0.00 0.00 0.00 89 1008.1
20260506154033 53 181 6.0 13.0 0.00 0.00 0.00 88 1008.0
20260506153532 53 173 7.0 18.0 0.00 0.00 0.00 88 1008.0
20260506153249 54 182 6.0 18.0 0.00 0.00 0.00 87 1008.2
20260506152521 54 190 5.0 14.0 0.00 0.00 0.00 87 1008.4
20260506152015 54 197 6.0 14.0 0.00 0.00 0.00 87 1008.3
20260506151734 54 167 6.0 16.0 0.00 0.00 0.00 87 1008.1
20260506151002 55 206 6.0 19.0 0.00 0.00 0.00 87 1008.0
20260506150459 55 172 6.0 19.0 0.00 0.00 0.00 86 1008.1
20260506145959 55 222 5.0 13.0 0.00 0.00 0.00 86 1008.1
20260506145725 56 192 6.0 14.0 0.00 0.00 0.00 87 1007.9
20260506145001 55 242 7.0 24.0 0.00 0.00 0.00 87 1007.9
20260506144457 55 180 7.0 24.0 0.00 0.00 0.00 88 1007.7
20260506143959 55 306 7.0 17.0 0.00 0.00 0.00 88 1007.8
20260506143455 54 178 6.0 15.0 0.00 0.00 0.00 88 1007.8
20260506143215 54 182 5.0 14.0 0.00 0.00 0.00 88 1007.8
20260506142455 54 225 6.0 14.0 0.00 0.00 0.00 88 1007.9
20260506141955 54 222 5.0 13.0 0.00 0.00 0.00 89 1008.0
20260506141723 54 231 4.0 13.0 0.00 0.00 0.00 89 1008.1
20260506140955 54 198 3.0 11.0 0.00 0.00 0.00 89 1008.2
20260506140455 54 239 3.0 9.0 0.00 0.00 0.00 89 1008.3
20260506135955 54 164 4.0 12.0 0.00 0.00 0.00 89 1008.3
20260506135454 53 211 4.0 13.0 0.00 0.00 0.00 89 1008.4
20260506134955 53 203 4.0 13.0 0.00 0.00 0.00 89 1008.4
20260506134455 53 217 4.0 15.0 0.00 0.00 0.00 90 1008.4
20260506133948 53 196 5.0 15.0 0.00 0.00 0.00 90 1008.4
20260506133442 53 236 5.0 15.0 0.00 0.00 0.00 89 1008.4
20260506132936 53 194 5.0 15.0 0.00 0.00 0.00 89 1008.3
20260506132430 53 192 5.0 12.0 0.00 0.00 0.00 89 1008.3
20260506132148 53 152 5.0 12.0 0.00 0.00 0.00 89 1008.3
20260506131418 53 217 5.0 11.0 0.00 0.00 0.00 89 1008.2
20260506130912 53 217 6.0 19.0 0.00 0.00 0.00 90 1008.2
20260506130406 53 180 6.0 19.0 0.00 0.00 0.00 89 1008.1
20260506125900 53 225 6.0 16.0 0.00 0.00 0.00 90 1008.2
20260506125355 53 236 6.0 16.0 0.00 0.00 0.00 89 1008.2
20260506125112 53 206 5.0 13.0 0.00 0.00 0.00 89 1008.2
20260506124342 53 167 5.0 12.0 0.00 0.00 0.00 89 1008.2
20260506123836 53 194 5.0 12.0 0.00 0.00 0.00 89 1008.1
20260506123331 53 156 5.0 15.0 0.00 0.00 0.00 90 1008.1
20260506122824 53 221 6.0 15.0 0.00 0.00 0.00 90 1008.1
20260506122319 52 204 5.0 13.0 0.00 0.00 0.00 90 1008.4
20260506122035 52 173 5.0 12.0 0.00 0.00 0.00 90 1008.4
20260506121306 52 210 5.0 12.0 0.00 0.00 0.00 90 1008.4
20260506121025 52 203 5.0 11.0 0.00 0.00 0.00 90 1008.5
20260506120522 52 223 5.0 11.0 0.00 0.00 0.00 90 1008.4
20260506115805 52 200 4.0 13.0 0.00 0.00 0.00 90 1008.4
20260506115307 52 198 4.0 13.0 0.00 0.00 0.00 91 1008.6
20260506115024 52 191 4.0 14.0 0.00 0.00 0.00 91 1008.6
20260506114305 52 194 4.0 14.0 0.00 0.00 0.00 90 1008.6
20260506113805 52 199 4.0 13.0 0.00 0.00 0.00 90 1008.7
20260506113749 52 203 4.0 10.0 0.00 0.00 0.00 90 1008.8
20260506112803 52 173 4.0 13.0 0.00 0.00 0.00 90 1008.7
20260506112305 52 200 4.0 13.0 0.00 0.00 0.00 90 1008.6
20260506111802 52 153 4.0 12.0 0.00 0.00 0.00 90 1008.6
20260506111748 52 200 4.0 12.0 0.00 0.00 0.00 91 1008.4
20260506110803 51 196 4.0 12.0 0.00 0.00 0.00 91 1008.5
20260506110257 51 213 4.0 12.0 0.00 0.00 0.00 91 1008.5
20260506110014 51 208 3.0 10.0 0.00 0.00 0.00 91 1008.5
20260506105244 51 229 2.0 8.0 0.00 0.00 0.00 91 1008.6
20260506104740 51 205 4.0 9.0 0.00 0.00 0.00 91 1008.6
20260506104233 51 202 4.0 12.0 0.00 0.00 0.00 91 1008.5
20260506103726 51 244 4.0 12.0 0.00 0.00 0.00 91 1008.5
20260506103220 51 184 5.0 13.0 0.00 0.00 0.00 91 1008.5
20260506102715 51 219 4.0 13.0 0.00 0.00 0.00 91 1008.6
20260506102434 51 203 4.0 12.0 0.00 0.00 0.00 91 1008.6
20260506101703 51 188 4.0 12.0 0.00 0.00 0.00 91 1008.5
20260506101156 51 202 4.0 9.0 0.00 0.00 0.00 91 1008.2
20260506100651 51 182 4.0 9.0 0.00 0.00 0.00 91 1008.3
20260506100144 51 200 4.0 11.0 0.00 0.00 0.00 91 1008.3
20260506095638 50 197 3.0 11.0 0.00 0.00 0.00 91 1008.5
20260506095356 50 172 3.0 10.0 0.00 0.00 0.00 91 1008.4
20260506094626 50 217 3.0 14.0 0.00 0.00 0.00 91 1008.4
20260506094342 50 208 3.0 14.0 0.00 0.00 0.00 91 1008.3
20260506093615 50 198 2.0 8.0 0.00 0.00 0.00 91 1008.3
20260506093332 50 215 2.0 8.0 0.00 0.00 0.00 91 1008.3
20260506092823 50 232 3.0 10.0 0.00 0.00 0.00 91 1008.3
20260506092056 51 257 3.0 10.0 0.00 0.00 0.00 90 1008.3
20260506091551 51 221 3.0 9.0 0.00 0.00 0.00 91 1008.3
20260506091044 51 216 3.0 11.0 0.00 0.00 0.00 91 1008.2
20260506090803 51 207 4.0 11.0 0.00 0.00 0.00 91 1008.3
20260506090033 51 205 4.0 9.0 0.00 0.00 0.00 91 1008.3
20260506085526 51 166 3.0 9.0 0.00 0.00 0.00 90 1008.3
20260506085021 51 171 3.0 9.0 0.00 0.00 0.00 90 1008.2
20260506084739 51 217 3.0 7.0 0.00 0.00 0.00 90 1008.2
20260506084008 51 180 4.0 14.0 0.00 0.00 0.00 90 1008.2
20260506083502 51 178 4.0 14.0 0.00 0.00 0.00 90 1008.1
20260506082956 51 190 3.0 10.0 0.00 0.00 0.00 90 1008.2
20260506082450 51 223 3.0 10.0 0.00 0.00 0.00 90 1008.1
20260506081944 51 182 3.0 9.0 0.00 0.00 0.00 89 1008.2
20260506081438 51 176 3.0 9.0 0.00 0.00 0.00 90 1008.3
20260506080932 51 217 3.0 8.0 0.00 0.00 0.00 89 1008.2
20260506080427 51 199 2.0 7.0 0.00 0.00 0.00 89 1008.3
20260506072844 51 208 3.0 11.0 0.00 0.00 0.00 88 1008.0
20260506072338 51 197 4.0 11.0 0.00 0.00 0.00 88 1007.9
20260506072059 51 193 3.0 11.0 0.00 0.00 0.00 88 1007.9
20260506071553 51 167 3.0 13.0 0.00 0.00 0.00 88 1007.9
20260506071308 51 233 4.0 13.0 0.00 0.00 0.00 88 1007.8
20260506070322 51 200 3.0 10.0 0.00 0.00 0.00 88 1007.7
20260506062319 52 221 5.0 13.0 0.00 0.00 0.00 87 1007.7
20260506062038 52 191 5.0 12.0 0.00 0.00 0.00 87 1007.7
20260506061318 52 195 5.0 13.0 0.00 0.00 0.00 87 1007.6
20260506060817 51 168 5.0 13.0 0.00 0.00 0.00 87 1007.6
20260506060316 51 196 3.0 11.0 0.00 0.00 0.00 87 1007.5
20260506051252 51 210 4.0 12.0 0.00 0.00 0.00 87 1007.7
20260506050751 51 167 3.0 10.0 0.00 0.00 0.00 87 1007.7
20260506050250 51 246 3.0 14.0 0.00 0.00 0.00 87 1007.7
20260506044750 52 241 5.0 12.0 0.00 0.00 0.00 86 1007.9
20260506044521 52 193 4.0 14.0 0.00 0.00 0.00 86 1007.8
20260506043750 52 210 5.0 14.0 0.00 0.00 0.00 85 1007.7
20260506043736 52 253 4.0 12.0 0.00 0.00 0.00 85 1007.7
20260506042748 52 234 5.0 12.0 0.00 0.00 0.00 86 1007.7
20260506042246 52 200 6.0 16.0 0.00 0.00 0.00 86 1007.6
20260506041746 52 210 5.0 16.0 0.00 0.00 0.00 86 1007.6
20260506041247 52 181 4.0 15.0 0.00 0.00 0.00 85 1007.6
20260506040745 53 175 3.0 10.0 0.00 0.00 0.00 86 1007.6
20260506040244 53 192 4.0 10.0 0.00 0.00 0.00 86 1007.5
20260506040004 53 231 3.0 10.0 0.00 0.00 0.00 86 1007.6
20260506035504 53 209 3.0 12.0 0.00 0.00 0.00 86 1007.6
20260506034739 53 180 3.0 12.0 0.00 0.00 0.00 86 1007.6
20260506034237 53 205 3.0 9.0 0.00 0.00 0.00 86 1007.5
20260506033735 53 177 4.0 10.0 0.00 0.00 0.00 86 1007.5
20260506033236 53 187 5.0 11.0 0.00 0.00 0.00 85 1007.6
20260506032734 53 168 4.0 11.0 0.00 0.00 0.00 85 1007.6
20260506032234 53 203 3.0 9.0 0.00 0.00 0.00 85 1007.5
20260506031952 53 161 2.0 7.0 0.00 0.00 0.00 85 1007.4
20260506031232 53 166 2.0 8.0 0.00 0.00 0.00 85 1007.4
20260506030955 53 183 2.0 8.0 0.00 0.00 0.00 85 1007.5
20260506030230 53 177 2.0 7.0 0.00 0.00 0.00 85 1007.7
20260506025730 53 158 2.0 7.0 0.00 0.00 0.00 85 1007.7
20260506025230 53 175 2.0 6.0 0.00 0.00 0.00 84 1007.8
20260506024731 53 177 3.0 8.0 0.00 0.00 0.00 84 1007.6
20260506024231 53 183 3.0 11.0 0.00 0.00 0.00 83 1007.7
20260506023730 54 219 3.0 11.0 0.00 0.00 0.00 83 1007.7
20260506023230 54 230 3.0 7.0 0.00 0.00 0.00 82 1007.5
20260506022728 55 199 3.0 7.0 0.00 0.00 0.00 81 1007.6
20260506022229 55 165 3.0 7.0 0.00 0.00 0.00 81 1007.7
20260506021722 55 201 3.0 7.0 0.00 0.00 0.00 80 1007.7
20260506021436 56 196 3.0 7.0 0.00 0.00 0.00 79 1007.7
20260506020712 56 135 4.0 9.0 0.00 0.00 0.00 79 1007.8
20260506020432 57 185 4.0 10.0 0.00 0.00 0.00 78 1007.7
20260506015658 57 205 4.0 10.0 0.00 0.00 0.00 78 1007.8
20260506015151 57 180 3.0 9.0 0.00 0.00 0.00 78 1007.8
20260506014645 57 186 3.0 11.0 0.00 0.00 0.00 78 1007.9
20260506014139 57 186 2.0 11.0 0.00 0.00 0.00 78 1007.8
20260506013632 57 186 1.0 6.0 0.00 0.00 0.00 78 1007.8
20260506013126 57 181 1.0 6.0 0.00 0.00 0.00 78 1007.8
20260506012621 57 221 0.0 6.0 0.00 0.00 0.00 78 1007.7
20260506012120 57 168 2.0 7.0 0.00 0.00 0.00 77 1007.6
20260506011608 57 168 4.0 10.0 0.00 0.00 0.00 77 1007.5
20260506011550 57 135 3.0 10.0 0.00 0.00 0.00 76 1007.5
20260506010606 58 176 4.0 12.0 0.00 0.00 0.00 76 1007.4
20260506010103 58 166 4.0 12.0 0.00 0.00 0.00 76 1007.4
20260506005602 58 207 3.0 8.0 0.00 0.00 0.00 75 1007.3
20260506005321 59 157 3.0 8.0 0.00 0.00 0.00 74 1007.4
20260506004602 59 244 3.0 8.0 0.00 0.00 0.00 74 1007.4
20260506004102 59 261 3.0 11.0 0.00 0.00 0.00 73 1007.4